Precipitable_Water
0.61 0.53 0.50 0.55 0.56 0.49 0.43 0.43 0.40 0.47 0.46 0.38 0.35 0.34 0.39 0.61 0.86 0.90 0.95 1.02 1.08 1.20 1.20 1.18 1.31 1.41 1.44 1.49 1.54 1.63 1.65 1.72 1.78 1.77 1.87 1.96 1.92 2.05 2.05 2.06 2.05 2.08 2.10 2.09
0.54 0.49 0.56 0.54 0.54 0.48 0.43 0.38 0.38 0.41 0.41 0.38 0.38 0.34 0.42 0.54 0.71 0.82 0.91 0.98 1.03 1.13 1.24 1.23 1.46 1.51 1.51 1.45 1.51 1.64 1.65 1.71 1.76 1.83 1.89 1.93 2.01 1.95 1.95 2.04 2.00 2.02 2.12 2.10
0.49 0.52 0.59 0.56 0.50 0.43 0.40 0.37 0.36 0.36 0.38 0.38 0.39 0.37 0.49 0.63 0.77 0.77 1.00 1.04 1.11 1.27 1.35 1.50 1.45 1.41 1.52 1.50 1.47 1.62 1.65 1.69 1.75 1.75 1.82 1.92 2.01 1.92 1.85 1.84 1.87 1.91 2.02 2.10
0.52 0.57 0.54 0.52 0.47 0.38 0.33 0.39 0.36 0.36 0.30 0.29 0.39 0.28 0.48 0.66 0.69 0.78 0.86 1.02 1.13 1.22 1.50 1.47 1.53 1.45 1.45 1.58 1.61 1.69 1.70 1.70 1.73 1.74 1.72 1.67 1.66 1.61 1.81 1.84 1.87 1.88 1.91 1.92
0.46 0.51 0.51 0.47 0.40 0.39 0.33 0.39 0.38 0.36 0.29 0.31 0.40 0.40 0.48 0.68 0.67 0.82 1.02 1.05 1.11 1.18 1.15 1.10 1.47 1.52 1.55 1.67 1.66 1.72 1.75 1.72 1.74 1.75 1.68 1.63 1.60 1.65 1.76 1.85 1.82 1.78 1.82 1.82
0.45 0.49 0.46 0.43 0.41 0.36 0.36 0.36 0.38 0.38 0.35 0.31 0.45 0.46 0.53 0.63 0.69 0.80 1.01 1.19 1.19 1.20 1.23 1.16 1.33 1.56 1.44 1.58 1.74 1.81 1.75 1.77 1.69 1.67 1.68 1.55 1.49 1.57 1.69 1.69 1.76 1.79 1.77 1.80
0.38 0.37 0.42 0.41 0.33 0.35 0.33 0.34 0.28 0.29 0.31 0.36 0.55 0.51 0.58 0.79 0.84 0.85 1.01 1.11 1.20 1.24 1.20 1.14 1.31 1.36 1.29 1.29 1.63 1.86 1.81 1.79 1.86 1.76 1.73 1.71 1.59 1.60 1.62 1.69 1.78 1.82 1.83 1.78
0.28 0.25 0.35 0.39 0.32 0.29 0.26 0.33 0.29 0.24 0.28 0.42 0.59 0.48 0.61 0.93 0.97 1.01 1.07 1.29 1.35 1.44 1.26 1.30 1.43 1.34 1.34 1.26 1.48 1.69 2.13 2.09 2.06 1.99 1.98 1.91 1.77 1.74 1.69 1.70 1.73 1.82 1.81 1.90
0.25 0.23 0.32 0.33 0.38 0.34 0.29 0.28 0.36 0.33 0.47 0.44 0.54 0.63 0.76 0.87 0.97 1.03 1.10 1.32 1.48 1.45 1.46 1.46 1.36 1.28 1.30 1.27 1.33 1.43 1.53 2.62 2.19 2.06 2.07 1.97 1.90 1.82 1.81 1.84 1.87 1.78 1.83 1.92
0.26 0.22 0.34 0.39 0.40 0.38 0.33 0.38 0.32 0.39 0.36 0.37 0.50 0.56 0.56 0.74 0.89 0.95 1.02 1.24 1.45 1.45 1.44 1.32 1.18 1.11 1.13 1.20 1.34 1.56 1.82 2.10 2.03 1.59 1.80 2.09 1.91 1.87 1.80 1.82 1.82 1.92 1.88 2.01
0.30 0.29 0.35 0.45 0.45 0.44 0.38 0.35 0.42 0.48 0.50 0.44 0.40 0.47 0.68 0.72 0.84 0.93 0.99 1.11 1.36 1.32 1.28 1.24 1.19 1.13 1.12 1.28 1.33 1.39 1.63 1.84 1.77 1.82 1.96 1.98 1.96 1.91 1.89 1.92 1.97 1.89 1.89 1.88
0.33 0.30 0.27 0.34 0.51 0.56 0.58 0.50 0.49 0.45 0.43 0.51 0.49 0.47 0.75 0.78 0.86 0.92 0.99 1.18 1.25 1.26 1.25 1.29 1.26 1.25 1.26 1.20 1.19 1.35 1.49 1.50 1.65 1.72 1.66 1.60 1.69 1.81 1.89 1.87 1.90 1.91 1.86 1.95
0.35 0.33 0.29 0.32 0.43 0.51 0.50 0.59 0.59 0.58 0.57 0.47 0.45 0.47 0.73 0.84 0.85 0.97 1.15 1.20 1.22 1.22 1.23 1.20 1.19 1.23 1.19 1.19 1.16 1.26 1.28 1.33 1.43 1.47 1.53 1.54 1.57 1.71 1.73 1.86 1.91 1.90 1.92 1.93
0.44 0.38 0.33 0.30 0.41 0.50 0.45 0.52 0.60 0.59 0.51 0.50 0.48 0.57 0.69 0.77 0.88 0.99 1.08 1.11 1.15 1.17 1.20 1.24 1.21 1.10 1.06 0.89 0.97 1.02 1.10 1.15 1.15 1.22 1.32 1.38 1.44 1.58 1.67 1.86 1.89 1.94 1.94 1.85
0.45 0.35 0.40 0.46 0.51 0.54 0.52 0.50 0.54 0.54 0.62 0.53 0.58 0.59 0.71 0.78 0.84 0.88 1.00 1.10 1.11 1.08 1.07 1.08 1.01 0.96 0.93 0.88 0.89 0.91 0.89 0.91 0.94 0.95 1.02 1.08 1.17 1.25 1.37 1.51 1.63 1.66 1.73 1.73
0.52 0.39 0.42 0.43 0.52 0.51 0.50 0.54 0.56 0.59 0.61 0.65 0.67 0.67 0.86 0.89 0.93 0.86 0.85 0.88 0.97 1.01 0.99 0.96 0.98 1.04 1.04 1.04 1.06 1.07 1.01 0.98 0.98 0.92 0.88 0.95 1.03 1.12 1.19 1.28 1.34 1.36 1.35 1.40
0.55 0.46 0.39 0.34 0.39 0.42 0.42 0.53 0.56 0.59 0.59 0.65 0.63 0.73 0.85 0.84 0.84 0.85 0.87 0.86 0.85 0.86 0.90 0.95 1.00 1.02 1.05 1.08 1.13 1.13 1.15 1.21 1.13 1.07 1.02 0.99 0.93 0.89 0.90 1.01 1.09 1.14 1.21 1.28
0.45 0.46 0.44 0.37 0.40 0.28 0.50 0.67 0.65 0.62 0.71 0.77 0.77 0.80 0.83 0.81 0.82 0.83 0.83 0.78 0.76 0.77 0.79 0.80 0.83 0.87 0.92 0.95 0.99 1.04 1.05 1.06 1.03 1.01 1.01 0.99 0.98 0.95 0.93 0.89 0.87 0.96 1.08 1.11
0.57 0.50 0.42 0.35 0.35 0.41 0.52 0.60 0.59 0.59 0.60 0.75 0.73 0.75 0.76 0.82 0.85 0.76 0.79 0.80 0.78 0.78 0.80 0.82 0.87 0.87 0.87 0.91 0.93 0.94 0.90 0.93 0.96 0.92 0.94 0.99 0.97 0.91 0.94 0.98 0.97 0.94 0.91 0.97
0.56 0.53 0.42 0.37 0.29 0.25 0.46 0.63 0.74 0.74 0.53 0.74 0.74 0.72 0.71 0.71 0.57 0.65 0.81 0.80 0.76 0.78 0.80 0.81 0.85 0.89 0.91 0.94 0.98 0.96 0.92 0.89 0.84 0.89 0.94 1.02 1.04 1.01 1.04 1.04 1.01 1.02 1.04 1.03
0.44 0.45 0.39 0.39 0.36 0.46 0.60 0.66 0.73 0.46 0.49 0.70 0.73 0.74 0.72 0.64 0.64 0.65 0.66 0.63 0.72 0.79 0.85 0.92 0.95 0.96 1.03 1.10 1.11 1.07 1.07 1.04 1.08 1.11 1.13 1.12 1.19 1.12 1.13 1.14 1.14 1.10 1.07 1.06
0.43 0.42 0.43 0.46 0.40 0.35 0.67 0.69 0.57 0.68 0.76 0.76 0.75 0.72 0.59 0.56 0.58 0.62 0.71 0.77 0.82 0.83 0.87 0.93 0.95 0.97 1.05 1.09 1.09 1.07 1.08 1.17 1.23 1.32 1.27 1.22 1.17 1.15 1.12 1.10 1.10 1.14 1.15 1.09
0.44 0.52 0.47 0.48 0.47 0.64 0.67 0.64 0.70 0.72 0.69 0.70 0.64 0.65 0.61 0.62 0.68 0.76 0.77 0.78 0.80 0.87 0.92 0.97 0.96 0.96 0.98 1.04 1.11 1.10 1.18 1.22 1.18 1.18 1.19 1.20 1.22 1.22 1.23 1.17 1.15 1.12 1.11 1.11
0.61 0.65 0.53 0.52 0.63 0.66 0.68 0.69 0.68 0.68 0.67 0.73 0.74 0.69 0.71 0.72 0.78 0.75 0.71 0.81 0.87 0.94 0.95 0.95 0.96 0.96 1.01 1.14 1.20 1.26 1.28 1.29 1.25 1.18 1.18 1.22 1.23 1.24 1.26 1.27 1.25 1.25 1.24 1.21
0.60 0.61 0.57 0.59 0.68 0.71 0.71 0.71 0.73 0.73 0.76 0.73 0.73 0.75 0.78 0.79 0.69 0.69 0.76 0.84 0.92 0.95 0.99 1.00 1.02 1.09 1.12 1.22 1.24 1.30 1.33 1.35 1.26 1.25 1.25 1.25 1.29 1.31 1.30 1.31 1.32 1.33 1.36 1.34
0.57 0.51 0.48 0.52 0.68 0.65 0.66 0.75 0.79 0.73 0.71 0.72 0.75 0.80 0.84 0.74 0.67 0.73 0.81 0.92 0.95 0.99 1.08 1.04 1.06 1.13 1.18 1.20 1.23 1.23 1.25 1.30 1.27 1.24 1.26 1.28 1.28 1.29 1.32 1.30 1.32 1.44 1.43 1.44
Wind_Speed
8 7 8 7 5 7 4 1 4 6 5 1 3 3 1 9 12 10 9 7 5 4 3 2 3 3 4 4 3 4 4 2 2 2 2 2 3 3 3 4 4 6 7 7
8 9 8 5 7 3 1 3 2 1 3 4 4 4 3 5 5 12 11 9 9 6 5 3 3 3 4 4 2 2 2 2 2 1 2 3 3 3 3 4 4 5 4 6
11 10 6 8 4 4 3 1 2 4 5 6 2 6 5 3 3 3 13 11 8 5 4 4 5 5 6 5 4 3 2 2 1 1 1 3 3 4 4 5 5 4 5 6
11 11 9 8 4 6 3 3 3 4 5 6 4 7 4 4 4 2 3 10 8 6 6 9 7 4 5 7 7 5 4 3 2 2 2 3 3 4 5 5 5 5 5 7
10 5 5 7 7 5 9 5 4 5 4 4 5 1 8 4 3 1 2 5 9 8 9 5 8 4 7 8 9 8 6 5 4 4 4 4 4 5 6 6 6 6 6 7
13 11 8 7 6 7 7 6 4 3 3 4 6 4 7 4 7 2 3 4 8 8 6 7 9 7 7 9 11 12 11 9 7 6 6 6 6 7 7 7 7 8 8 8
7 8 7 6 4 6 3 3 4 3 3 6 8 3 8 5 3 6 3 4 9 6 5 4 8 7 10 12 12 15 16 14 11 9 9 9 9 9 9 9 10 9 10 10
7 4 8 7 5 6 9 8 5 6 6 7 6 7 7 7 3 3 4 4 4 2 0 3 6 12 11 12 15 17 21 18 12 11 11 11 11 12 12 12 12 11 12 12
7 6 5 10 6 4 4 8 8 5 5 3 8 9 10 6 4 3 6 6 7 5 1 6 8 9 8 12 20 17 28 23 10 13 14 12 12 14 15 15 15 15 15 15
6 4 2 4 5 5 7 9 6 5 6 5 9 9 7 4 9 6 10 11 8 7 3 6 7 11 15 15 19 18 17 14 12 16 13 15 15 15 17 17 18 18 18 18
9 5 5 3 3 5 4 4 4 5 5 6 8 11 9 10 10 9 3 11 12 9 6 8 10 12 15 13 16 19 18 15 17 18 17 17 18 19 20 20 20 20 19 19
10 6 6 5 3 2 3 2 3 4 9 7 8 10 8 7 10 12 12 11 9 7 10 12 12 13 12 13 14 14 16 17 18 19 21 20 21 23 23 24 22 21 20 19
8 6 6 6 7 5 3 4 5 6 6 7 6 11 8 6 9 7 8 8 9 10 12 15 16 15 16 17 16 16 18 19 21 22 22 22 22 23 24 24 24 23 22 21
5 5 7 10 10 9 9 8 8 7 7 12 10 8 8 6 4 5 6 7 10 13 15 16 18 20 22 22 21 20 20 21 22 22 23 23 23 23 22 22 23 24 24 22
6 6 6 9 8 7 9 9 8 9 12 11 11 6 7 5 5 4 6 10 13 16 18 20 22 23 24 24 24 23 22 22 23 23 23 24 24 24 24 25 25 25 25 23
7 6 6 6 8 9 10 12 11 9 9 9 6 9 11 9 9 11 12 13 16 19 22 24 25 25 27 27 27 27 27 26 26 25 25 25 25 25 25 25 24 24 24 23
3 4 5 6 9 10 12 14 6 7 8 7 7 7 8 8 9 11 13 16 17 19 21 22 24 27 28 29 29 30 31 30 29 29 29 29 30 29 29 29 29 28 27 26
6 5 6 9 9 7 8 2 2 3 2 1 3 5 7 8 9 12 16 17 20 22 25 27 29 30 31 31 32 31 31 31 31 31 30 30 31 32 33 33 33 32 30 30
8 7 7 6 7 6 7 7 7 7 5 6 7 9 10 13 15 16 19 21 24 27 29 31 32 33 33 33 34 34 33 33 33 34 34 34 34 33 31 30 30 30 31 32
6 6 7 9 7 8 10 10 9 9 10 11 9 12 14 16 17 21 23 24 27 30 31 33 34 34 34 35 36 35 36 36 36 35 34 33 32 31 31 31 31 30 30 31
9 9 7 7 8 10 10 11 10 10 12 12 12 14 15 17 20 23 26 27 28 30 31 33 34 35 36 37 37 36 36 35 35 33 32 32 31 32 33 34 33 33 33 33
10 9 10 9 9 11 11 10 9 12 12 12 14 15 17 19 22 23 25 28 30 32 34 35 36 37 39 39 39 39 38 38 37 36 36 36 36 36 36 37 37 38 38 37
11 12 11 11 11 11 8 7 9 12 13 14 15 17 17 19 21 24 26 28 29 32 33 34 34 33 33 33 33 36 38 38 37 37 38 39 40 41 41 40 40 40 40 40
12 11 9 9 10 8 8 9 10 11 12 13 14 16 16 19 22 24 26 28 29 29 31 31 30 30 29 29 31 32 30 29 30 31 33 35 35 36 36 36 36 36 36 35
14 11 11 9 11 10 11 11 10 11 12 13 14 15 18 20 22 24 26 26 27 28 29 28 27 27 28 29 30 30 28 26 25 28 31 32 33 34 34 34 35 35 34 33
14 13 13 14 14 12 11 11 12 13 12 13 14 16 19 21 23 25 24 25 26 27 26 26 27 27 28 29 29 30 29 29 28 29 29 30 30 29 29 29 31 33 33 33
Wind_Direction
203 192 209 234 242 257 234 302 289 228 216 189 281 327 297 218 222 216 217 216 218 210 194 176 168 157 164 155 132 117 138 139 172 193 210 264 292 278 262 266 271 259 273 245
191 208 222 244 267 244 356 347 2 131 200 254 281 296 311 355 237 223 218 220 226 225 220 212 192 208 196 194 173 140 141 133 88 176 256 289 310 292 286 276 274 262 264 224
189 218 242 256 267 225 246 256 272 259 281 287 257 308 286 280 349 288 229 230 232 232 216 231 222 234 225 225 223 212 192 196 218 334 321 315 303 314 290 282 277 269 254 231
215 235 238 248 230 193 231 278 288 278 287 249 279 280 242 268 319 23 232 213 208 215 230 252 254 250 239 241 236 242 234 229 249 278 304 303 294 312 303 292 283 273 258 246
202 214 258 232 221 214 229 266 295 282 277 264 286 283 243 260 299 310 212 195 201 205 221 260 228 256 256 258 246 240 244 250 258 272 287 294 299 297 306 297 284 279 269 261
233 248 244 228 234 241 249 262 317 313 269 267 248 244 271 276 279 293 213 182 195 205 235 260 237 261 291 258 252 241 238 242 250 263 276 281 288 294 293 293 284 280 273 269
228 229 236 230 262 271 215 210 283 313 337 258 276 288 245 295 278 226 212 292 191 228 247 275 254 287 281 261 259 243 238 233 238 253 264 270 280 286 287 290 282 277 278 273
199 258 221 228 230 235 217 207 211 261 281 258 306 297 287 264 262 208 202 210 203 240 291 325 299 292 290 271 243 264 253 236 243 252 260 269 273 277 281 284 284 278 279 274
195 247 312 203 223 182 233 227 237 254 285 255 268 279 291 287 209 261 207 202 210 224 271 323 333 340 297 278 279 268 303 223 264 271 274 270 275 274 277 277 278 277 275 271
212 243 244 225 218 240 250 228 258 275 246 271 275 280 273 254 232 257 282 245 224 252 304 325 342 349 334 296 291 290 294 288 248 299 280 288 282 279 279 279 277 275 275 270
211 220 257 227 261 260 290 253 255 240 244 250 261 272 270 252 237 244 255 231 247 258 297 304 319 326 338 332 311 299 294 289 286 288 289 285 283 281 279 279 281 275 275 273
207 211 230 240 259 214 197 221 230 241 276 276 266 280 273 259 240 244 242 246 257 278 297 299 310 317 321 326 319 310 305 298 295 294 298 292 289 282 278 278 277 277 275 274
212 238 238 280 272 274 237 282 270 250 258 285 265 278 278 269 290 253 245 261 267 293 297 303 308 312 315 313 313 302 297 298 296 296 295 291 288 284 279 276 277 276 275 277
206 236 221 228 244 258 275 276 281 261 265 272 271 278 287 260 274 270 261 264 280 293 297 301 304 305 308 308 305 300 296 294 294 294 292 290 288 286 283 278 275 276 279 277
236 246 246 241 250 262 272 274 287 278 262 259 265 250 259 236 235 262 284 289 293 296 297 298 301 301 301 302 301 297 295 293 293 292 290 288 286 284 281 279 277 276 277 277
259 235 242 247 254 258 282 291 285 282 266 249 238 254 254 250 264 292 297 302 299 297 298 300 301 302 301 299 298 294 293 291 291 290 287 285 283 282 280 278 277 276 276 274
228 232 253 270 279 273 286 295 282 281 281 236 237 252 253 272 287 298 300 302 303 305 307 308 307 304 303 300 298 295 292 289 287 285 283 282 281 279 277 275 274 273 272 271
240 266 278 274 290 283 261 221 84 83 349 269 246 275 280 271 282 297 302 303 305 306 306 305 304 302 301 299 297 295 294 290 288 287 285 283 280 279 278 274 271 270 269 268
256 262 286 285 278 256 252 269 263 248 278 270 266 281 287 281 284 300 306 306 305 304 303 302 302 300 299 297 295 292 290 287 286 285 283 283 281 277 274 273 272 271 268 268
270 271 280 284 270 257 258 263 259 247 260 272 273 280 285 291 291 293 302 304 305 305 305 304 303 301 300 299 297 294 291 288 285 284 283 282 280 276 272 271 272 272 270 269
271 283 274 273 276 278 271 278 267 258 259 273 280 286 294 294 291 295 301 305 306 307 308 306 305 303 301 300 297 293 290 288 286 285 282 282 279 276 273 272 271 270 270 270
260 265 275 278 281 274 278 284 267 259 268 279 289 293 295 296 300 303 308 310 310 310 311 309 307 305 304 300 297 293 289 287 284 280 279 280 278 277 275 273 271 269 268 268
272 262 265 272 268 278 293 272 273 270 279 289 291 295 301 303 306 310 310 311 313 315 316 315 314 314 314 312 309 303 294 286 283 281 280 280 278 277 274 272 270 269 267 265
269 266 266 277 275 276 282 283 285 290 288 290 297 304 306 307 311 312 313 314 315 319 321 321 323 322 321 321 322 322 313 299 288 284 285 284 282 279 275 272 270 269 266 263
262 269 261 271 264 276 287 290 286 291 294 301 304 308 311 313 314 315 315 316 318 319 322 324 326 326 325 326 326 328 325 317 306 298 294 290 285 282 277 273 270 269 265 262
267 257 259 262 262 267 279 282 288 297 301 302 305 310 313 315 315 316 319 320 320 321 322 323 325 327 329 329 327 327 327 322 315 309 303 298 294 287 281 279 275 267 263 261